Regional Weather Roundup
Issued by NWS

Home | Current Version | Previous Version | Graphics & Text | Print | Product List | Glossary On
Versions: 1 2 3 4 5 6 7 8 9 10 11 12 13 14 15 16 17 18 19 20 21 22 23 24 25 26 27 28 29 30 31 32 33 34 35 36 37 38 39 40 41 42 43 44 45 46 47 48 49 50
075
ASUS43 KLOT 270103
RWRIL

ILLINOIS REGIONAL WEATHER ROUNDUP
NATIONAL WEATHER SERVICE CHICAGO/ROMEOVILLE IL
800 PM CDT TUE JUL 26 2016

NOTE: "FAIR" INDICATES FEW OR NO CLOUDS BELOW 12,000 FEET WITH NO
SIGNIFICANT WEATHER AND/OR OBSTRUCTIONS TO VISIBILITY.

* THESE STATIONS ARE NOT UNDER NWS QUALITY CONTROL. THEY ALSO MAY NOT
  REPORT WEATHER SUCH AS PRECIPITATION OR FOG.

ILZ001-002-007-009-015-016-024-270200-
NORTHWEST ILLINOIS

CITY           SKY/WX    TMP DP  RH WIND       PRES   REMARKS
MOLINE         CLEAR     81  68  64 SE3       30.01R HX  84
STERLING*      CLEAR     77  71  82 CALM      30.02S
SAVANNA*       CLEAR     79  70  74 CALM      30.01S HX  81
$$

ILZ003-004-008-010-011-017-018-270200-
NORTH CENTRAL ILLINOIS

CITY           SKY/WX    TMP DP  RH WIND       PRES   REMARKS
ROCKFORD       PTCLDY    82  64  54 NW5       30.02S HX  83
FREEPORT*      CLEAR     79  68  68 CALM      30.04F HX  82
ROCHELLE*      CLEAR     80  66  61 CALM      30.03S HX  82
DE KALB*       CLEAR     79  64  60 CALM      30.04S HX  81
$$

ILZ005-006-012>014-019>023-270200-
NORTHEAST ILLINOIS

CITY           SKY/WX    TMP DP  RH WIND       PRES   REMARKS
CHICAGO-OHARE  PTCLDY    82  62  50 E8        30.01R HX  83
CHICAGO-MIDWAY PTCLDY    83  62  49 E7        30.01R HX  84
AURORA         CLEAR     79  71  76 NW3       30.02R HX  82
LANSING*       PTCLDY    79  60  50 NE5       30.02R HX  80
WAUKEGAN       CLEAR     77  65  66 SE3       30.01S
DUPAGE AIRPORT MOCLDY    81  64  56 NW7       30.01S HX  82
KANKAKEE*      CLEAR     79  72  78 CALM      30.02S HX  82
WHEELING       CLEAR     80  62  54 E3        30.02S HX  81
MORRIS*        CLEAR     80  72  77 CALM      30.00S HX  83
NORTHERLY ISL    N/A     76  68  76 CALM        N/A
$$

LMZ740>746-270200-
SOUTHERN LAKE MICHIGAN

STATION/POSITION SKY/WX   TEMP    WIND        PRES    VSBY  WAVE
                          AIR SEA DIR/SP/G                  HT/PER
                          (F)     (DEG/KT/KT) (MB)    (MI)  (FT/S)
SOUTHERN BUOY              78 78   CALM  /  2 1015.5          0
WILMETTE HARBOR            76 71  180/  2/  4   N/A           0
HARRISON CRIB              80     100/  5/  5   N/A
BURNHAM HARBOR             76      CALM  /  2   N/A
CALUMET HARBOR             77                   N/A
BURNS HARBOR               79      60/  8/  9 1016.6S
MICHIGAN CITY              77      30/  7/  8   N/A
MICHIGAN CITY 6N           77 78   50/  4/  6   N/A           0
ST. JOSEPH                 77 77   20/  4/  4 1016.0R         0
$$

ILZ025>027-034>036-040-047-049-050-058-095>099-270200-
WEST-CENTRAL ILLINOIS

CITY           SKY/WX    TMP DP  RH WIND       PRES   REMARKS
QUINCY         CLEAR     82  70  66 N3        30.00S HX  86
GALESBURG*     CLEAR     77  69  75 N5        30.02F
JACKSONVILLE*  CLEAR     81  73  77 CALM      30.00R HX  85
$$

ILZ028>032-037-038-041>044-048-051>054-059>061-270200-
CENTRAL ILLINOIS

CITY           SKY/WX    TMP DP  RH WIND       PRES   REMARKS
PONTIAC        CLEAR     78  76  91 CALM      30.02S HX  82
BLOOMINGTON    CLEAR     78  71  79 SW5       30.03S HX  80
DECATUR        CLEAR     79  70  74 E3        30.01S HX  82
PEORIA         MOCLDY    82  70  66 CALM      30.00S HX  86
LACON*         CLEAR     78  72  79 CALM      30.00S HX  81
SPRINGFIELD    CLEAR     82  71  69 E6        30.00S HX  86
TAYLORVILLE    NOT AVBL
$$

ILZ033-039-045-046-055>057-062-063-270200-
EAST-CENTRAL ILLINOIS

CITY           SKY/WX    TMP DP  RH WIND       PRES   REMARKS
CHAMPAIGN      CLEAR     78  70  76 E3        30.01F HX  80
MATTOON        CLOUDY    78  67  68 NE5       30.00S HX  80
PARIS*         PTCLDY    75  71  87 CALM      30.01F
$$

ILZ079-100>102-270200-
SOUTHWEST ILLINOIS

CITY           SKY/WX    TMP DP  RH WIND       PRES   REMARKS
BELLEVILLE     CLOUDY    80  77  90 SW5       29.95F HX  87
CAHOKIA*       MOCLDY    81  73  76 SW5       29.96F HX  86
SPARTA*        CLOUDY    77  74  92 CALM      29.98S
$$

ILZ064>066-069>071-074>076-080>082-084>086-088>090-092>094-270200-
SOUTH-CENTRAL ILLINOIS

CITY           SKY/WX    TMP DP  RH WIND       PRES   REMARKS
CARBONDALE     CLOUDY    77  74  90 CALM      29.96S
CAIRO*         PTCLDY    76  75  95 NE3       29.96R
EFFINGHAM*     CLOUDY    80  76  87 CALM      30.00S HX  86
MARION         MOCLDY    77  77 100 CALM      29.97F FOG
MT. VERNON     CLOUDY    79  70  73 MISG      29.97S HX  81
CENTRALIA*     CLOUDY    79  76  90 CALM      29.97S HX  82
SALEM*         CLOUDY    82  75  78 CALM      29.97S HX  89
METROPOLIS*    MOCLDY    77  74  92 CALM      29.97S
$$

ILZ067-068-072-073-078-083-087-091-270200-
SOUTHEAST ILLINOIS

CITY           SKY/WX    TMP DP  RH WIND       PRES   REMARKS
LAWRENCEVILLE  CLOUDY    81  74  79 NE5       29.98S HX  86
FLORA*         CLOUDY    82  76  81 N3        29.97S HX  88
FAIRFIELD*     MOCLDY    76  74  93 CALM      29.96S
HARRISBURG*    CLOUDY    76  76  99 SW3       29.98R FOG
ROBINSON*      PTCLDY    78  74  88 N5        29.98F HX  80
CARMI*         DRIZZLE   75  74  99 N3        29.96F
$$

ABBREVIATIONS USED IN REMARKS
   TC - TEMPERATURE IN CELSIUS
  WCI - WIND CHILL INDEX
   HX - HEAT INDEX
  VSB - VISIBILITY
$$





USA.gov is the U.S. government's official web portal to all federal, state and local government web resources and services.